Regional Weather Roundup
Issued by NWS

Home | Current Version | Previous Version | Graphics & Text | Print | Product List | Glossary On
Versions: 1 2 3 4 5 6 7 8 9 10 11 12 13 14 15 16 17 18 19 20 21 22 23 24 25 26 27 28 29 30 31 32 33 34 35 36 37 38 39 40 41 42 43 44 45 46 47 48 49 50
000
ASUS43 KIND 251209
RWRIN

WEATHER ROUNDUP FOR INDIANA
NATIONAL WEATHER SERVICE INDIANAPOLIS IN
800 AM EDT SAT MAR 25 2017

NOTE: "FAIR" INDICATES FEW OR NO CLOUDS BELOW 12,000 FEET WITH NO
SIGNIFICANT WEATHER AND/OR OBSTRUCTIONS TO VISIBILITY.

* - STATION DOES NOT REPORT WEATHER SUCH AS PRECIPITATION OR FOG.

+ - STATION NOT QUALITY CONTROLLED BY THE NATIONAL WEATHER SERVICE.
    USE DATA WITH CAUTION...ESPECIALLY DEWPOINT AND RELATIVE
    HUMIDITY OBSERVATIONS.

INZ001>003-010>013-019-020-251300-
NORTHWEST INDIANA

CITY           SKY/WX    TMP DP  RH WIND       PRES   REMARKS
GARY /AIRPORT/ LGT RAIN  41  41 100 NW7       30.05R FOG
KNOX *+        CLOUDY    43  34  70 NE5       30.04R
LA PORTE +     DRIZZLE   44  43  97 E5        30.05R
6HR MIN TEMP:  40; 6HR MAX TEMP:  44; 6HR PCP:  0.14;

MICHIGAN CITY+ LGT RAIN  43  43 100 SE3       30.05R
MONTICELLO +   CLOUDY    51  47  84 E3        30.00S
6HR MIN TEMP:  50; 6HR MAX TEMP:  62;

RENSSELAER +   LGT RAIN  45  43  93 NE9       30.01S
VALPARAISO     LGT RAIN  43  42  97 E6        30.04S FOG
6HR MIN TEMP:  41; 6HR MAX TEMP:  43; 6HR PCP:  0.08;


$$

LMZ046-743>745-251300-
SOUTHERN LAKE MICHIGAN

STATION/POSITION TIME  TEMP    WIND        PRES    WAVE
                       AIR SEA DIR/SP/G            HT
                 (UTC) (F)     (DEG/KT/KT) (MB)    (FT)
BURNS HARBOR     1202   39     290/  4/  7 1017.9
MICHIGAN CITY    1140   42     120/  8/  9   N/A

$$

INZ004-005-014>016-021>024-251300-
NORTH CENTRAL INDIANA

CITY           SKY/WX    TMP DP  RH WIND       PRES   REMARKS
ELKHART        CLOUDY    48  46  93 NE8       30.07  FOG
GOSHEN         CLOUDY    54  49  83 NE8       30.06R HAZE
6HR MIN TEMP:  52; 6HR MAX TEMP:  58; 6HR PCP: TRACE;

LOGANSPORT +   CLOUDY    55  50  82 E5        30.03S
PERU/GRISSOM   CLOUDY    58  56  93 SE7       30.01R
6HR MIN TEMP:  57; 6HR MAX TEMP:  61;

ROCHESTER +    CLOUDY    54  52  94 CALM      30.04S
SOUTH BEND     CLOUDY    47  47 100 NE5       30.06S FOG
6HR MIN TEMP:  42; 6HR MAX TEMP:  47; 6HR PCP:  0.10;

WARSAW +       CLOUDY    54  50  87 CALM      30.05R

$$

INZ006>009-017-018-025>027-251300-
NORTHEAST INDIANA

CITY           SKY/WX    TMP DP  RH WIND       PRES   REMARKS
ANGOLA *+      PTCLDY    55  54  94 CALM      30.07R
AUBURN +       CLOUDY    52  48  87 E3        30.08R
FORT WAYNE     CLOUDY    56  51  84 CALM      30.06R
6HR MIN TEMP:  55; 6HR MAX TEMP:  58;

HUNTINGTON +   CLOUDY    59  52  78 S5        30.05R
6HR MIN TEMP:  58; 6HR MAX TEMP:  60;

KENDALLVILLE + MOCLDY    55  52  89 SE5       30.07R

$$

INZ028-029-035-036-043>045-051>053-251300-
WEST CENTRAL INDIANA

CITY           SKY/WX    TMP DP  RH WIND       PRES   REMARKS
CRAWFORDSVL +  CLOUDY    57  53  87 SE9       30.00R
6HR MIN TEMP:  56; 6HR MAX TEMP:  62;

GREENCASTLE +  CLOUDY    59  50  72 SE9       30.01S
LAFAYETTE      CLOUDY    60  53  77 SE7       29.98S
6HR MIN TEMP:  59; 6HR MAX TEMP:  64;

TERRE HAUTE    CLOUDY    63  51  65 S14       29.97S
6HR MIN TEMP:  61; 6HR MAX TEMP:  64;


$$

INZ030>032-037>040-046>048-054>057-064-065-251300-
CENTRAL INDIANA

CITY           SKY/WX    TMP DP  RH WIND       PRES   REMARKS
CP ATTERBURY + PTCLDY    59  50  72 S9        30.06R
COLUMBUS       PTCLDY    59  50  72 S9        30.06S
FRANKFORT +    CLOUDY    62  54  76 S8        30.02S
6HR MIN TEMP:  58; 6HR MAX TEMP:  63;

GREENWOOD *+   CLOUDY    60  52  75 SE9       30.05S
6HR MIN TEMP:  60; 6HR MAX TEMP:  61;

INDIANAPOLIS   MOCLDY    60  52  74 SE9       30.03S
6HR MIN TEMP:  59; 6HR MAX TEMP:  63;

-EAGLE CREEK   MOCLDY    61  51  70 SE7       30.03S
6HR MIN TEMP:  58; 6HR MAX TEMP:  65;

KOKOMO +       CLOUDY    59  53  80 S12       30.04R
6HR MIN TEMP:  55; 6HR MAX TEMP:  63; 6HR PCP: TRACE;

MARION +       CLOUDY    58  51  79 S7        30.05R
MT COMFORT *+  MOCLDY    59  50  72 S9        30.05S
SHELBYVILLE    CLOUDY    61  49  64 SE13      30.05S
6HR MIN TEMP:  61; 6HR MAX TEMP:  64;

ZIONSVILLE +   MOCLDY    59  52  77 S10       30.03S
6HR MIN TEMP:  59; 6HR MAX TEMP:  62;


$$

INZ033-034-041-042-049-050-058-059-251300-
EAST CENTRAL INDIANA

CITY           SKY/WX    TMP DP  RH WIND       PRES   REMARKS
MUNCIE         CLOUDY    63  51  65 S15       30.06R
6HR MIN TEMP:  62; 6HR MAX TEMP:  64;

RICHMOND +     CLOUDY    55  50  82 S13       30.11R

$$

INZ060-061-067>069-081>083-085>088-251300-
SOUTHWEST INDIANA

CITY           SKY/WX    TMP DP  RH WIND       PRES   REMARKS
EVANSVILLE     CLOUDY    64  53  67 S18G25    30.02R
6HR MIN TEMP:  62; 6HR MAX TEMP:  65;

HUNTINGBURG *+ CLOUDY    64  52  64 S10       30.03R
6HR MIN TEMP:  63; 6HR MAX TEMP:  65;

WASHINGTON +   CLOUDY    62  49  64 CALM      30.00S
6HR MIN TEMP:  62; 6HR MAX TEMP:  63;


$$

INZ062-063-066-070>080-084-089>092-251300-
SOUTH CENTRAL AND SOUTHEAST INDIANA

CITY           SKY/WX    TMP DP  RH WIND       PRES   REMARKS
BLOOMINGTON    CLOUDY    60  49  66 SE10      30.02S
6HR MIN TEMP:  60; 6HR MAX TEMP:  63;

MADISON *+     PTCLDY    59  46  63 SE6       30.11S
SEYMOUR +      CLOUDY    59  48  67 SE8       30.06S

$$




USA.gov is the U.S. government's official web portal to all federal, state and local government web resources and services.